Location: Newark
(39.6867°N, 100.6772°W)
Time: 02:24:14
(UTC+00:00)

Vanguard 3 - All Passes

Search period start: 16 October 2019 00:00
Search period end: 26 October 2019 00:00
Orbit: 508 x 3262 km, 33.3° (Epoch: 15 October)

Date Brightness Start Highest point End Pass type
(mag) Time Alt. Az. Time Alt. Az. Time Alt. Az.
16 Oct - 07:18:20 10° SSW 07:21:18 22° SSE 07:24:52 10° ESE night (unlit)
16 Oct - 09:27:53 10° WSW 09:32:10 45° S 09:38:54 10° ESE visible
16 Oct - 11:38:20 10° WSW 11:43:59 38° SSW 11:53:22 10° SE visible
16 Oct - 13:50:36 10° WSW 13:56:53 21° SSW 14:05:43 10° SSE daylight
17 Oct - 06:06:50 10° S 06:08:04 11° SSE 06:09:19 10° SE night (unlit)
17 Oct - 08:15:04 10° SW 08:18:40 35° SSE 08:23:36 10° ESE visible
17 Oct - 10:25:14 10° WSW 10:29:57 41° S 10:37:37 10° ESE visible
17 Oct - 12:36:23 10° WSW 12:42:12 26° SSW 12:51:02 10° SSE daylight
17 Oct - 14:54:31 10° SW 14:55:30 10° SSW 14:56:31 10° SSW daylight
18 Oct - 07:02:21 10° SW 07:05:22 24° SSE 07:08:48 10° ESE night (unlit)
18 Oct - 09:12:16 10° WSW 09:16:15 41° S 09:22:10 10° ESE visible
18 Oct - 11:22:54 10° WSW 11:27:54 31° SSW 11:35:49 10° SE visible
18 Oct - 13:35:58 10° WSW 13:40:36 15° SSW 13:46:34 10° S daylight
19 Oct - 05:50:00 10° SSW 05:52:04 14° SSE 05:54:06 10° SE night (unlit)
19 Oct - 07:59:20 10° WSW 08:02:47 35° S 08:07:14 10° ESE night (unlit)
19 Oct - 10:09:43 10° WSW 10:13:59 35° S 10:20:33 10° SE visible
19 Oct - 12:21:18 10° WSW 12:26:04 20° SSW 12:32:48 10° SSE visible
20 Oct - 06:46:21 10° SW 06:49:28 26° SSE 06:52:49 10° ESE night (unlit)
20 Oct - 08:56:41 10° WSW 09:00:22 37° S 09:05:32 10° ESE visible
20 Oct - 11:07:34 10° WSW 11:11:54 24° SSW 11:18:16 10° SE visible
20 Oct - 13:23:38 10° SSW 13:24:25 10° SSW 13:25:13 10° SSW daylight
21 Oct - 05:33:24 10° SSW 05:36:07 18° SSE 05:38:40 10° ESE night (unlit)
21 Oct - 07:43:34 10° WSW 07:46:56 34° S 07:50:59 10° ESE night (unlit)
21 Oct - 09:54:15 10° WSW 09:58:04 29° S 10:03:32 10° SE visible
21 Oct - 12:06:39 10° SW 12:10:00 14° SSW 12:14:14 10° S visible
22 Oct - 04:20:52 10° S 04:22:37 12° SSE 04:24:12 10° SE night (unlit)
22 Oct - 06:30:18 10° SW 06:33:37 28° S 06:36:54 10° ESE night (unlit)
22 Oct - 08:41:03 10° WSW 08:44:30 32° S 08:48:59 10° ESE visible
22 Oct - 10:52:26 10° WSW 10:55:56 18° SSW 11:00:37 10° SSE visible
23 Oct - 05:16:50 10° SW 05:20:14 22° SSE 05:23:09 10° ESE night (unlit)
23 Oct - 07:27:46 10° WSW 07:31:06 33° S 07:34:48 10° ESE night (unlit)
23 Oct - 09:38:51 10° WSW 09:42:10 22° SSW 09:46:32 10° SE visible
24 Oct - 04:03:20 10° SSW 04:06:42 17° SSE 04:09:25 10° ESE night (unlit)
24 Oct - 06:14:12 10° WSW 06:17:46 31° S 06:21:04 10° ESE night (unlit)
24 Oct - 08:25:27 10° WSW 08:28:39 27° S 08:32:31 10° SE night (unlit)
24 Oct - 10:37:45 10° SW 10:39:59 13° SSW 10:42:37 10° S visible
25 Oct - 02:50:13 10° S 02:52:54 13° SSE 02:55:10 10° SE visible
25 Oct - 05:00:17 10° SW 05:04:21 27° S 05:07:36 10° ESE night (unlit)
25 Oct - 07:11:54 10° WSW 07:15:16 31° S 07:18:44 10° ESE night (unlit)
25 Oct - 09:23:35 10° WSW 09:26:16 17° SSW 09:29:30 10° SSE visible
